AirNav   Everest Fuels
 
 1045 users online  

15NY Peninsula Hospital Center Heliport
Far Rockaway, New York, USA

GOING TO FAR ROCKAWAY?


FAA INFORMATION EFFECTIVE 21 MAY 2020

Location

FAA Identifier: 15NY
Lat/Long: 40-35-36.9100N 073-46-59.4300W
40-35.615167N 073-46.990500W
40.5935861,-73.7831750
(estimated)
Elevation: 0 ft. / 0 m (estimated)
Variation: 13W (1985)
Time zone: UTC -4 (UTC -5 during Standard Time)
Zip code: 11691

Heliport Operations

Heliport use: Private use, MEDICAL USE.
Activation date: 07/1990
Control tower: no
ARTCC: NEW YORK CENTER
FSS: NEW YORK FLIGHT SERVICE STATION
Attendance: CONTINUOUS
Wind indicator: yes
Segmented circle: no
Lights: FOR PERIMETER AND FLOOD LGTS CALL 718-945-7100, EXTN 700.

Heliport Communications

WX ASOS at JFK (2.8 nm N): 128.725 (718-656-0956)
WX ASOS at LGA (12 nm N): PHONE 718-672-6317
WX AWOS-3PT at JRB (12 nm NW): 128.175 (212-425-1534)
WX ASOS at EWR (19 nm W): PHONE 973-621-2892
WX ASOS at FRG (19 nm NE): PHONE 631-752-8129
WX ASOS at TEB (20 nm NW): 132.025 (201-393-0855)

Nearby radio navigation aids

VOR radial/distance  VOR name  Freq  Var
JFKr205/2.4KENNEDY VOR/DME115.9012W
CRIr114/5.2CANARSIE VOR/DME112.3011W
LGAr173/12.1LA GUARDIA VOR/DME113.1012W
TEBr151/19.9TETERBORO VOR/DME108.4011W
COLr056/24.1COLTS NECK VOR/DME115.4011W
DPKr253/24.8DEER PARK VOR/DME117.7012W

 
NDB name  Hdg/Dist  Freq  Var  ID
BABYLON269/18.827514WBBN -... -... -.
CHATHAM120/30.725413WCAT -.-. .- -

Heliport Services

Runway Information

Helipad H1

Dimensions: 50 x 50 ft. / 15 x 15 m
Surface: asphalt
Runway edge lights: PERI
AND FLOOD LGTS.
Latitude: 40-35.615167N
Longitude: 073-46.990500W
Elevation: 0.0 ft.
Traffic pattern: leftleft

Heliport Ownership and Management from official FAA records

Ownership: Privately-owned
Owner: PENINSULA HOSPITAL CENTER
51-15 BEACH CHANNEL DR
FAR ROCKAWAY, NY 11691
Phone 718-945-7100
Manager: ROBERT V. LEVINE, PRES / CEO
51-15 BEACH CHANNEL DR
FAR ROCKAWAY, NY 11691
Phone 718-945-7100

Additional Remarks

A52-H1 45' CHIMNEY 100' EAST OF PAD.
FOR CD CTC NEW YORK APCH AT 516-683-2962.

Instrument Procedures

There are no published instrument procedures at 15NY.

Some nearby airports with instrument procedures:

KJFK - John F Kennedy International Airport (3 nm N)
KLGA - LaGuardia Airport (12 nm N)
KJRB - Downtown Manhattan/Wall Street Heliport (12 nm NW)
6N5 - East 34th Street Heliport (12 nm NW)
KJRA - West 30th St Heliport (14 nm NW)
KEWR - Newark Liberty International Airport (19 nm W)
KFRG - Republic Airport (19 nm NE)
KTEB - Teterboro Airport (20 nm NW)
 
Loc | Ops | Rwys | IFR | FBO | Links
Com | Nav | Svcs | Stats | Notes
Area around 15NY (Peninsula Hospital Center Heliport)
 
Road maps at: MapQuest Bing Google
 
Aerial photo
No photo
 
Sectional chart

 
Airport distance calculator
Flying to Peninsula Hospital Center Heliport? Find the distance to fly.

From to 15NY

Sunrise and sunset
Times for 24-May-2020
 Local
(UTC-4)
 Zulu
(UTC)
Morning civil twilight04:5908:59
Sunrise05:3109:31
Sunset20:1300:13
Evening civil twilight20:4500:45

Current date and time
Zulu (UTC)  24-May-2020 21:37:48
Local (UTC-4)  24-May-2020 17:37:48
 
METAR
KJFK 
3nm N 
242051Z 14010KT 10SM SCT035 SCT150 BKN250 18/13 A3024 RMK AO2 SLP241 T01780128 58007 $
KJRB 
12nm NW 
242056Z AUTO 22006KT 10SM SCT032 19/12 A3025 RMK AO2 SLP242 T01940117 56006
KLGA 
12nm N 
242051Z 10006KT 10SM BKN033 BKN250 20/11 A3022 RMK AO2 SLP234 T02000111 56012
KNYC 
14nm NW 
242051Z AUTO 10SM BKN034 18/12 A3025 RMK AO2 SLP235 T01830122 56011 $
KEWR 
18nm W 
242051Z 14010KT 10SM FEW033 BKN250 19/11 A3023 RMK AO2 SLP235 T01890111 56008
KFRG 
19nm NE 
242053Z AUTO 14012KT 10SM FEW035 19/11 A3023 RMK AO2 SLP237 T01890111 56007
TAF
KJFK 
3nm N 
241946Z 2420/2524 17010KT P6SM SCT025 BKN035 FM250000 12008KT P6SM SCT020 FM250200 07007KT P6SM BKN020 FM250500 05005KT P6SM SCT008 BKN015 FM250800 04005KT P6SM BKN008 FM251400 08007KT P6SM BKN020 FM251700 14010KT P6SM SCT030
KLGA 
12nm N 
241946Z 2420/2524 04009KT P6SM SCT025 BKN035 FM242100 14009KT P6SM SCT025 FM250200 09007KT P6SM BKN020 FM250600 06005KT P6SM SCT008 OVC015 FM250900 05005KT P6SM BKN008 FM251400 05006KT P6SM BKN020 FM251700 08007KT P6SM SCT025 FM252000 11008KT P6SM SCT030
KEWR 
18nm W 
241946Z 2420/2524 12007KT P6SM SCT025 BKN035 FM250200 09005KT P6SM BKN020 FM250500 06005KT P6SM SCT008 BKN015 FM250800 03004KT P6SM BKN009 FM251400 04005KT P6SM BKN020 FM251800 12007KT P6SM SCT030
NOTAMs
Click for the latest NOTAMs
NOTAMs are issued by the DoD/FAA and will open in a separate window not controlled by AirNav.

 

 
 

Would you like to see your business listed on this page?

 If your business provides an interesting product or service to pilots, flight crews, aircraft, or users of the Peninsula Hospital Center Heliport, you should consider listing it here.  To start the listing process, click on the button below
 
Add a business
 

Other Pages about Peninsula Hospital Center Heliport

Update a link
 
Copyright © AirNav, LLC. All rights reserved. Privacy Policy  Contact